TITAN 3C TRANSTAGE DEB, 43282

Orbit data source: Space-Track

TITAN 3C TRANSTAGE DEB, 43282 is space debris in GEO originally from a launch on Sun, 09 Feb 1969 UTC launched from the Air Force Eastern Test Range (AFETR). Debris objects in space refer to the collection of defunct objects orbiting the Earth. Examples of debris include non-operational satellites, rocket bodies, and fragments generated from explosions, collisions, or faulty payload assembly.

Loading next visibility...
Identifier
43282, 1969-013C
Orbit
GEO
Country
Flag of USUS
Related business
Manufacturer
Martin Marietta
Mission
Spacecraft
Bus & Motor
Unknown
Mass
Unknown
Launch date (UTC)
1969-02-09 (57 years ago)
Launch vehicle
Unknown
Launch site
Air Force Eastern Test Range (AFETR)
Object type
Payload
Rocket body
Debris
Shape & HBR
Unknown shape, 1.1 m
Radar Cross Section
RCS unknown

Expand to show TLE details & history
Last TLE update: 14 hours ago

TLE from 14 hours ago
0 TITAN 3C TRANSTAGE DEB
1 43282U 69013C   25352.06037300 -.00000129  00000-0  00000-0 0  9997
2 43282   1.7226  55.2303 0286675 234.8661 121.5298  0.91409744 25936
Epoch: 2025-12-18T01:26Z
TLE epoch observation values (Epoch: 2025-12-18T01:26:56.227Z)
Latitude
-0°
Longitude
-54.29216°
Altitude
39,174.753 km
Speed
2.935 km/s
True Right ascension
03h 37m 27s
True Declination
0° 00' 00"
Sunlit
Object was in daylight at epoch
Visualization orbit readout
Latitude
Unknown
Longitude
Unknown
Altitude
Unknown
Speed
Unknown
Apparent Right ascension
Unknown
Apparent Declination
Unknown
Sunlit
N/A
Visualization observer readout
Local Sidereal Time
14:39:10
Azimuth
Unknown
Elevation
Unknown
Doppler factor
Unknown
Orbital elements
Apogee altitude
39,756.273 km
Perigee altitude
37,184.872 km
Semi-major axis
44,848.71 km
Eccentricity
0.02867
Inclination
1.7226°
RAAN
55.2303°
Arg. of periapsis
234.8661°
True anomaly
124.27728°
Mean anomaly
121.5298°
Eccentric anomaly
122.90876°
Mean motion
0.22852 °/min
Orbital period
1,575.38 mins
BSTAR
0
Loading maneuver chart data...
Computing Atmospheric mass density...

Documentation

Showing up to 5 results
|